Index of /20260422/WXO-DD/model_rdps/10km/12/060
Name Last modified Size Description
Parent Directory -
20260422T12Z_MSC_RDPS_AbsoluteVorticity_IsbL-0250_RLatLon0.09_PT060H.grib2 2026-04-22 14:56 625K
20260422T12Z_MSC_RDPS_AbsoluteVorticity_IsbL-0500_RLatLon0.09_PT060H.grib2 2026-04-22 14:56 574K
20260422T12Z_MSC_RDPS_AbsoluteVorticity_IsbL-0700_RLatLon0.09_PT060H.grib2 2026-04-22 14:56 625K
20260422T12Z_MSC_RDPS_AbsoluteVorticity_IsbL-0850_RLatLon0.09_PT060H.grib2 2026-04-22 14:56 782K
20260422T12Z_MSC_RDPS_AirTemp_AGL-120m_RLatLon0.09_PT060H.grib2 2026-04-22 14:56 390K
20260422T12Z_MSC_RDPS_AirTemp_AGL-2m_RLatLon0.09_PT060H.grib2 2026-04-22 14:56 625K
20260422T12Z_MSC_RDPS_AirTemp_AGL-40m_RLatLon0.09_PT060H.grib2 2026-04-22 14:56 400K
20260422T12Z_MSC_RDPS_AirTemp_AGL-80m_RLatLon0.09_PT060H.grib2 2026-04-22 14:56 394K
20260422T12Z_MSC_RDPS_AirTemp_IsbL-0001_RLatLon0.09_PT060H.grib2 2026-04-22 14:56 267K
20260422T12Z_MSC_RDPS_AirTemp_IsbL-0005_RLatLon0.09_PT060H.grib2 2026-04-22 14:56 335K
20260422T12Z_MSC_RDPS_AirTemp_IsbL-0010_RLatLon0.09_PT060H.grib2 2026-04-22 14:56 308K
20260422T12Z_MSC_RDPS_AirTemp_IsbL-0020_RLatLon0.09_PT060H.grib2 2026-04-22 14:56 329K
20260422T12Z_MSC_RDPS_AirTemp_IsbL-0030_RLatLon0.09_PT060H.grib2 2026-04-22 14:56 352K
20260422T12Z_MSC_RDPS_AirTemp_IsbL-0050_RLatLon0.09_PT060H.grib2 2026-04-22 14:56 331K
20260422T12Z_MSC_RDPS_AirTemp_IsbL-0100_RLatLon0.09_PT060H.grib2 2026-04-22 14:56 435K
20260422T12Z_MSC_RDPS_AirTemp_IsbL-0150_RLatLon0.09_PT060H.grib2 2026-04-22 14:56 438K
20260422T12Z_MSC_RDPS_AirTemp_IsbL-0175_RLatLon0.09_PT060H.grib2 2026-04-22 14:56 432K
20260422T12Z_MSC_RDPS_AirTemp_IsbL-0200_RLatLon0.09_PT060H.grib2 2026-04-22 14:56 430K
20260422T12Z_MSC_RDPS_AirTemp_IsbL-0225_RLatLon0.09_PT060H.grib2 2026-04-22 14:56 426K
20260422T12Z_MSC_RDPS_AirTemp_IsbL-0250_RLatLon0.09_PT060H.grib2 2026-04-22 14:56 430K
20260422T12Z_MSC_RDPS_AirTemp_IsbL-0275_RLatLon0.09_PT060H.grib2 2026-04-22 14:56 409K
20260422T12Z_MSC_RDPS_AirTemp_IsbL-0300_RLatLon0.09_PT060H.grib2 2026-04-22 14:56 416K
20260422T12Z_MSC_RDPS_AirTemp_IsbL-0350_RLatLon0.09_PT060H.grib2 2026-04-22 14:56 429K
20260422T12Z_MSC_RDPS_AirTemp_IsbL-0400_RLatLon0.09_PT060H.grib2 2026-04-22 14:56 430K
20260422T12Z_MSC_RDPS_AirTemp_IsbL-0450_RLatLon0.09_PT060H.grib2 2026-04-22 14:56 402K
20260422T12Z_MSC_RDPS_AirTemp_IsbL-0500_RLatLon0.09_PT060H.grib2 2026-04-22 14:56 415K
20260422T12Z_MSC_RDPS_AirTemp_IsbL-0550_RLatLon0.09_PT060H.grib2 2026-04-22 14:56 435K
20260422T12Z_MSC_RDPS_AirTemp_IsbL-0600_RLatLon0.09_PT060H.grib2 2026-04-22 14:56 452K
20260422T12Z_MSC_RDPS_AirTemp_IsbL-0650_RLatLon0.09_PT060H.grib2 2026-04-22 14:56 465K
20260422T12Z_MSC_RDPS_AirTemp_IsbL-0700_RLatLon0.09_PT060H.grib2 2026-04-22 14:56 382K
20260422T12Z_MSC_RDPS_AirTemp_IsbL-0750_RLatLon0.09_PT060H.grib2 2026-04-22 14:56 414K
20260422T12Z_MSC_RDPS_AirTemp_IsbL-0800_RLatLon0.09_PT060H.grib2 2026-04-22 14:56 454K
20260422T12Z_MSC_RDPS_AirTemp_IsbL-0850_RLatLon0.09_PT060H.grib2 2026-04-22 14:56 495K
20260422T12Z_MSC_RDPS_AirTemp_IsbL-0875_RLatLon0.09_PT060H.grib2 2026-04-22 14:56 511K
20260422T12Z_MSC_RDPS_AirTemp_IsbL-0900_RLatLon0.09_PT060H.grib2 2026-04-22 14:56 517K
20260422T12Z_MSC_RDPS_AirTemp_IsbL-0925_RLatLon0.09_PT060H.grib2 2026-04-22 14:56 516K
20260422T12Z_MSC_RDPS_AirTemp_IsbL-0950_RLatLon0.09_PT060H.grib2 2026-04-22 14:56 528K
20260422T12Z_MSC_RDPS_AirTemp_IsbL-0970_RLatLon0.09_PT060H.grib2 2026-04-22 14:56 517K
20260422T12Z_MSC_RDPS_AirTemp_IsbL-0985_RLatLon0.09_PT060H.grib2 2026-04-22 14:56 519K
20260422T12Z_MSC_RDPS_AirTemp_IsbL-1000_RLatLon0.09_PT060H.grib2 2026-04-22 14:56 505K
20260422T12Z_MSC_RDPS_AirTemp_IsbL-1015_RLatLon0.09_PT060H.grib2 2026-04-22 14:56 501K
20260422T12Z_MSC_RDPS_Albedo_Sfc_RLatLon0.09_PT060H.grib2 2026-04-22 14:56 162K
20260422T12Z_MSC_RDPS_CAPE_Sfc_RLatLon0.09_PT060H.grib2 2026-04-22 14:56 1.7M
20260422T12Z_MSC_RDPS_CIN_Sfc_RLatLon0.09_PT060H.grib2 2026-04-22 14:56 1.2M
20260422T12Z_MSC_RDPS_CloudWater_EAtm_RLatLon0.09_PT060H.grib2 2026-04-22 14:56 222K
20260422T12Z_MSC_RDPS_ConvectivePrecip-Accum_Sfc_RLatLon0.09_PT060H.grib2 2026-04-22 14:56 1.2M
20260422T12Z_MSC_RDPS_DewPointDepression_AGL-2m_RLatLon0.09_PT060H.grib2 2026-04-22 14:56 408K
20260422T12Z_MSC_RDPS_DewPointDepression_IsbL-0001_RLatLon0.09_PT060H.grib2 2026-04-22 14:56 193
20260422T12Z_MSC_RDPS_DewPointDepression_IsbL-0005_RLatLon0.09_PT060H.grib2 2026-04-22 14:56 193
20260422T12Z_MSC_RDPS_DewPointDepression_IsbL-0010_RLatLon0.09_PT060H.grib2 2026-04-22 14:56 193
20260422T12Z_MSC_RDPS_DewPointDepression_IsbL-0020_RLatLon0.09_PT060H.grib2 2026-04-22 14:56 193
20260422T12Z_MSC_RDPS_DewPointDepression_IsbL-0030_RLatLon0.09_PT060H.grib2 2026-04-22 14:56 193
20260422T12Z_MSC_RDPS_DewPointDepression_IsbL-0050_RLatLon0.09_PT060H.grib2 2026-04-22 14:56 89K
20260422T12Z_MSC_RDPS_DewPointDepression_IsbL-0100_RLatLon0.09_PT060H.grib2 2026-04-22 14:56 134K
20260422T12Z_MSC_RDPS_DewPointDepression_IsbL-0150_RLatLon0.09_PT060H.grib2 2026-04-22 14:56 159K
20260422T12Z_MSC_RDPS_DewPointDepression_IsbL-0175_RLatLon0.09_PT060H.grib2 2026-04-22 14:56 200K
20260422T12Z_MSC_RDPS_DewPointDepression_IsbL-0200_RLatLon0.09_PT060H.grib2 2026-04-22 14:56 232K
20260422T12Z_MSC_RDPS_DewPointDepression_IsbL-0225_RLatLon0.09_PT060H.grib2 2026-04-22 14:56 269K
20260422T12Z_MSC_RDPS_DewPointDepression_IsbL-0250_RLatLon0.09_PT060H.grib2 2026-04-22 14:56 302K
20260422T12Z_MSC_RDPS_DewPointDepression_IsbL-0275_RLatLon0.09_PT060H.grib2 2026-04-22 14:56 309K
20260422T12Z_MSC_RDPS_DewPointDepression_IsbL-0300_RLatLon0.09_PT060H.grib2 2026-04-22 14:56 333K
20260422T12Z_MSC_RDPS_DewPointDepression_IsbL-0350_RLatLon0.09_PT060H.grib2 2026-04-22 14:56 343K
20260422T12Z_MSC_RDPS_DewPointDepression_IsbL-0400_RLatLon0.09_PT060H.grib2 2026-04-22 14:56 358K
20260422T12Z_MSC_RDPS_DewPointDepression_IsbL-0450_RLatLon0.09_PT060H.grib2 2026-04-22 14:56 368K
20260422T12Z_MSC_RDPS_DewPointDepression_IsbL-0500_RLatLon0.09_PT060H.grib2 2026-04-22 14:56 377K
20260422T12Z_MSC_RDPS_DewPointDepression_IsbL-0550_RLatLon0.09_PT060H.grib2 2026-04-22 14:56 389K
20260422T12Z_MSC_RDPS_DewPointDepression_IsbL-0600_RLatLon0.09_PT060H.grib2 2026-04-22 14:56 396K
20260422T12Z_MSC_RDPS_DewPointDepression_IsbL-0650_RLatLon0.09_PT060H.grib2 2026-04-22 14:56 398K
20260422T12Z_MSC_RDPS_DewPointDepression_IsbL-0700_RLatLon0.09_PT060H.grib2 2026-04-22 14:56 408K
20260422T12Z_MSC_RDPS_DewPointDepression_IsbL-0750_RLatLon0.09_PT060H.grib2 2026-04-22 14:56 429K
20260422T12Z_MSC_RDPS_DewPointDepression_IsbL-0800_RLatLon0.09_PT060H.grib2 2026-04-22 14:56 450K
20260422T12Z_MSC_RDPS_DewPointDepression_IsbL-0850_RLatLon0.09_PT060H.grib2 2026-04-22 14:56 468K
20260422T12Z_MSC_RDPS_DewPointDepression_IsbL-0875_RLatLon0.09_PT060H.grib2 2026-04-22 14:56 468K
20260422T12Z_MSC_RDPS_DewPointDepression_IsbL-0900_RLatLon0.09_PT060H.grib2 2026-04-22 14:56 464K
20260422T12Z_MSC_RDPS_DewPointDepression_IsbL-0925_RLatLon0.09_PT060H.grib2 2026-04-22 14:56 452K
20260422T12Z_MSC_RDPS_DewPointDepression_IsbL-0950_RLatLon0.09_PT060H.grib2 2026-04-22 14:56 440K
20260422T12Z_MSC_RDPS_DewPointDepression_IsbL-0970_RLatLon0.09_PT060H.grib2 2026-04-22 14:56 431K
20260422T12Z_MSC_RDPS_DewPointDepression_IsbL-0985_RLatLon0.09_PT060H.grib2 2026-04-22 14:56 426K
20260422T12Z_MSC_RDPS_DewPointDepression_IsbL-1000_RLatLon0.09_PT060H.grib2 2026-04-22 14:56 420K
20260422T12Z_MSC_RDPS_DewPointDepression_IsbL-1015_RLatLon0.09_PT060H.grib2 2026-04-22 14:56 408K
20260422T12Z_MSC_RDPS_DewPoint_AGL-2m_RLatLon0.09_PT060H.grib2 2026-04-22 14:56 308K
20260422T12Z_MSC_RDPS_DownwardLongwaveRadiationFlux-Accum_Sfc_RLatLon0.09_PT060H.grib2 2026-04-22 14:56 409K
20260422T12Z_MSC_RDPS_DownwardShortwaveRadiationFlux-Accum_NTAtm_RLatLon0.09_PT060H.grib2 2026-04-22 14:56 97K
20260422T12Z_MSC_RDPS_DownwardShortwaveRadiationFlux-Accum_Sfc_RLatLon0.09_PT060H.grib2 2026-04-22 14:56 607K
20260422T12Z_MSC_RDPS_FreezingRain-Accum12h_Sfc_RLatLon0.09_PT060H.grib2 2026-04-22 14:56 63K
20260422T12Z_MSC_RDPS_FreezingRain-Accum1h_Sfc_RLatLon0.09_PT060H.grib2 2026-04-22 14:56 16K
20260422T12Z_MSC_RDPS_FreezingRain-Accum24h_Sfc_RLatLon0.09_PT060H.grib2 2026-04-22 14:56 77K
20260422T12Z_MSC_RDPS_FreezingRain-Accum3h_Sfc_RLatLon0.09_PT060H.grib2 2026-04-22 14:56 19K
20260422T12Z_MSC_RDPS_FreezingRain-Accum6h_Sfc_RLatLon0.09_PT060H.grib2 2026-04-22 14:56 30K
20260422T12Z_MSC_RDPS_FreezingRain-Accum_Sfc_RLatLon0.09_PT060H.grib2 2026-04-22 14:56 151K
20260422T12Z_MSC_RDPS_GeopotentialHeight_IsbL-0001_RLatLon0.09_PT060H.grib2 2026-04-22 14:56 275K
20260422T12Z_MSC_RDPS_GeopotentialHeight_IsbL-0005_RLatLon0.09_PT060H.grib2 2026-04-22 14:56 340K
20260422T12Z_MSC_RDPS_GeopotentialHeight_IsbL-0010_RLatLon0.09_PT060H.grib2 2026-04-22 14:56 310K
20260422T12Z_MSC_RDPS_GeopotentialHeight_IsbL-0020_RLatLon0.09_PT060H.grib2 2026-04-22 14:56 310K
20260422T12Z_MSC_RDPS_GeopotentialHeight_IsbL-0030_RLatLon0.09_PT060H.grib2 2026-04-22 14:56 408K
20260422T12Z_MSC_RDPS_GeopotentialHeight_IsbL-0050_RLatLon0.09_PT060H.grib2 2026-04-22 14:56 313K
20260422T12Z_MSC_RDPS_GeopotentialHeight_IsbL-0100_RLatLon0.09_PT060H.grib2 2026-04-22 14:56 294K
20260422T12Z_MSC_RDPS_GeopotentialHeight_IsbL-0150_RLatLon0.09_PT060H.grib2 2026-04-22 14:56 234K
20260422T12Z_MSC_RDPS_GeopotentialHeight_IsbL-0175_RLatLon0.09_PT060H.grib2 2026-04-22 14:56 238K
20260422T12Z_MSC_RDPS_GeopotentialHeight_IsbL-0200_RLatLon0.09_PT060H.grib2 2026-04-22 14:56 242K
20260422T12Z_MSC_RDPS_GeopotentialHeight_IsbL-0225_RLatLon0.09_PT060H.grib2 2026-04-22 14:56 274K
20260422T12Z_MSC_RDPS_GeopotentialHeight_IsbL-0250_RLatLon0.09_PT060H.grib2 2026-04-22 14:56 274K
20260422T12Z_MSC_RDPS_GeopotentialHeight_IsbL-0275_RLatLon0.09_PT060H.grib2 2026-04-22 14:56 242K
20260422T12Z_MSC_RDPS_GeopotentialHeight_IsbL-0300_RLatLon0.09_PT060H.grib2 2026-04-22 14:56 241K
20260422T12Z_MSC_RDPS_GeopotentialHeight_IsbL-0350_RLatLon0.09_PT060H.grib2 2026-04-22 14:56 237K
20260422T12Z_MSC_RDPS_GeopotentialHeight_IsbL-0400_RLatLon0.09_PT060H.grib2 2026-04-22 14:56 233K
20260422T12Z_MSC_RDPS_GeopotentialHeight_IsbL-0450_RLatLon0.09_PT060H.grib2 2026-04-22 14:56 301K
20260422T12Z_MSC_RDPS_GeopotentialHeight_IsbL-0500_RLatLon0.09_PT060H.grib2 2026-04-22 14:56 296K
20260422T12Z_MSC_RDPS_GeopotentialHeight_IsbL-0550_RLatLon0.09_PT060H.grib2 2026-04-22 14:56 292K
20260422T12Z_MSC_RDPS_GeopotentialHeight_IsbL-0600_RLatLon0.09_PT060H.grib2 2026-04-22 14:56 289K
20260422T12Z_MSC_RDPS_GeopotentialHeight_IsbL-0650_RLatLon0.09_PT060H.grib2 2026-04-22 14:56 257K
20260422T12Z_MSC_RDPS_GeopotentialHeight_IsbL-0700_RLatLon0.09_PT060H.grib2 2026-04-22 14:56 254K
20260422T12Z_MSC_RDPS_GeopotentialHeight_IsbL-0750_RLatLon0.09_PT060H.grib2 2026-04-22 14:56 338K
20260422T12Z_MSC_RDPS_GeopotentialHeight_IsbL-0800_RLatLon0.09_PT060H.grib2 2026-04-22 14:56 344K
20260422T12Z_MSC_RDPS_GeopotentialHeight_IsbL-0850_RLatLon0.09_PT060H.grib2 2026-04-22 14:56 351K
20260422T12Z_MSC_RDPS_GeopotentialHeight_IsbL-0875_RLatLon0.09_PT060H.grib2 2026-04-22 14:56 354K
20260422T12Z_MSC_RDPS_GeopotentialHeight_IsbL-0900_RLatLon0.09_PT060H.grib2 2026-04-22 14:56 357K
20260422T12Z_MSC_RDPS_GeopotentialHeight_IsbL-0925_RLatLon0.09_PT060H.grib2 2026-04-22 14:56 358K
20260422T12Z_MSC_RDPS_GeopotentialHeight_IsbL-0950_RLatLon0.09_PT060H.grib2 2026-04-22 14:56 362K
20260422T12Z_MSC_RDPS_GeopotentialHeight_IsbL-0970_RLatLon0.09_PT060H.grib2 2026-04-22 14:56 282K
20260422T12Z_MSC_RDPS_GeopotentialHeight_IsbL-0985_RLatLon0.09_PT060H.grib2 2026-04-22 14:56 290K
20260422T12Z_MSC_RDPS_GeopotentialHeight_IsbL-1000_RLatLon0.09_PT060H.grib2 2026-04-22 14:56 299K
20260422T12Z_MSC_RDPS_GeopotentialHeight_IsbL-1015_RLatLon0.09_PT060H.grib2 2026-04-22 14:56 311K
20260422T12Z_MSC_RDPS_Humidex_Sfc_RLatLon0.09_PT060H.grib2 2026-04-22 14:56 2.4M
20260422T12Z_MSC_RDPS_IcePellets-Accum12h_Sfc_RLatLon0.09_PT060H.grib2 2026-04-22 14:56 40K
20260422T12Z_MSC_RDPS_IcePellets-Accum1h_Sfc_RLatLon0.09_PT060H.grib2 2026-04-22 14:56 26K
20260422T12Z_MSC_RDPS_IcePellets-Accum24h_Sfc_RLatLon0.09_PT060H.grib2 2026-04-22 14:56 49K
20260422T12Z_MSC_RDPS_IcePellets-Accum3h_Sfc_RLatLon0.09_PT060H.grib2 2026-04-22 14:56 28K
20260422T12Z_MSC_RDPS_IcePellets-Accum6h_Sfc_RLatLon0.09_PT060H.grib2 2026-04-22 14:56 32K
20260422T12Z_MSC_RDPS_IcePellets-Accum_Sfc_RLatLon0.09_PT060H.grib2 2026-04-22 14:56 82K
20260422T12Z_MSC_RDPS_KIndex_Sfc_RLatLon0.09_PT060H.grib2 2026-04-22 14:56 2.5M
20260422T12Z_MSC_RDPS_LatentHeatNetFlux_Sfc_RLatLon0.09_PT060H.grib2 2026-04-22 14:56 262K
20260422T12Z_MSC_RDPS_LiftedIndex-MU-VT_IsbL-0500_RLatLon0.09_PT060H.grib2 2026-04-22 14:56 2.4M
20260422T12Z_MSC_RDPS_NetLongwaveRadiationFlux-Accum_Sfc_RLatLon0.09_PT060H.grib2 2026-04-22 14:56 587K
20260422T12Z_MSC_RDPS_NetShortwaveRadiationFlux-Accum_Sfc_RLatLon0.09_PT060H.grib2 2026-04-22 14:56 616K
20260422T12Z_MSC_RDPS_PlanetaryBoundaryLayerHeight_Sfc_RLatLon0.09_PT060H.grib2 2026-04-22 14:56 1.0M
20260422T12Z_MSC_RDPS_Precip-Accum12h_Sfc_RLatLon0.09_PT060H.grib2 2026-04-22 14:56 1.7M
20260422T12Z_MSC_RDPS_Precip-Accum1h_Sfc_RLatLon0.09_PT060H.grib2 2026-04-22 14:56 1.2M
20260422T12Z_MSC_RDPS_Precip-Accum24h_Sfc_RLatLon0.09_PT060H.grib2 2026-04-22 14:56 1.8M
20260422T12Z_MSC_RDPS_Precip-Accum3h_Sfc_RLatLon0.09_PT060H.grib2 2026-04-22 14:56 1.3M
20260422T12Z_MSC_RDPS_Precip-Accum6h_Sfc_RLatLon0.09_PT060H.grib2 2026-04-22 14:56 1.5M
20260422T12Z_MSC_RDPS_Precip-Accum_Sfc_RLatLon0.09_PT060H.grib2 2026-04-22 14:56 2.2M
20260422T12Z_MSC_RDPS_PrecipRate_Sfc_RLatLon0.09_PT060H.grib2 2026-04-22 14:56 193K
20260422T12Z_MSC_RDPS_PrecipType-Instant_Sfc_RLatLon0.09_PT060H.grib2 2026-04-22 14:56 594K
20260422T12Z_MSC_RDPS_Pressure-Trend3h_Sfc_RLatLon0.09_PT060H.grib2 2026-04-22 14:56 1.2M
20260422T12Z_MSC_RDPS_Pressure_MSL_RLatLon0.09_PT060H.grib2 2026-04-22 14:56 326K
20260422T12Z_MSC_RDPS_Pressure_PVU-1.5_RLatLon0.09_PT060H.grib2 2026-04-22 14:56 2.3M
20260422T12Z_MSC_RDPS_Pressure_PVU-1_RLatLon0.09_PT060H.grib2 2026-04-22 14:56 2.4M
20260422T12Z_MSC_RDPS_Pressure_PVU-2_RLatLon0.09_PT060H.grib2 2026-04-22 14:56 2.4M
20260422T12Z_MSC_RDPS_Pressure_Sfc_RLatLon0.09_PT060H.grib2 2026-04-22 14:56 500K
20260422T12Z_MSC_RDPS_RadiativeTemp_Sfc_RLatLon0.09_PT060H.grib2 2026-04-22 14:56 316K
20260422T12Z_MSC_RDPS_Rain-Accum12h_Sfc_RLatLon0.09_PT060H.grib2 2026-04-22 14:56 1.1M
20260422T12Z_MSC_RDPS_Rain-Accum1h_Sfc_RLatLon0.09_PT060H.grib2 2026-04-22 14:56 510K
20260422T12Z_MSC_RDPS_Rain-Accum24h_Sfc_RLatLon0.09_PT060H.grib2 2026-04-22 14:56 1.2M
20260422T12Z_MSC_RDPS_Rain-Accum3h_Sfc_RLatLon0.09_PT060H.grib2 2026-04-22 14:56 587K
20260422T12Z_MSC_RDPS_Rain-Accum6h_Sfc_RLatLon0.09_PT060H.grib2 2026-04-22 14:56 916K
20260422T12Z_MSC_RDPS_Rain-Accum_Sfc_RLatLon0.09_PT060H.grib2 2026-04-22 14:56 1.7M
20260422T12Z_MSC_RDPS_RelativeHumidity_AGL-2m_RLatLon0.09_PT060H.grib2 2026-04-22 14:56 1.0M
20260422T12Z_MSC_RDPS_RelativeHumidity_IsbL-0010_RLatLon0.09_PT060H.grib2 2026-04-22 14:56 628K
20260422T12Z_MSC_RDPS_RelativeHumidity_IsbL-0020_RLatLon0.09_PT060H.grib2 2026-04-22 14:56 652K
20260422T12Z_MSC_RDPS_RelativeHumidity_IsbL-0030_RLatLon0.09_PT060H.grib2 2026-04-22 14:56 550K
20260422T12Z_MSC_RDPS_RelativeHumidity_IsbL-0050_RLatLon0.09_PT060H.grib2 2026-04-22 14:56 384K
20260422T12Z_MSC_RDPS_RelativeHumidity_IsbL-0100_RLatLon0.09_PT060H.grib2 2026-04-22 14:56 274K
20260422T12Z_MSC_RDPS_RelativeHumidity_IsbL-0150_RLatLon0.09_PT060H.grib2 2026-04-22 14:56 405K
20260422T12Z_MSC_RDPS_RelativeHumidity_IsbL-0175_RLatLon0.09_PT060H.grib2 2026-04-22 14:56 507K
20260422T12Z_MSC_RDPS_RelativeHumidity_IsbL-0200_RLatLon0.09_PT060H.grib2 2026-04-22 14:56 588K
20260422T12Z_MSC_RDPS_RelativeHumidity_IsbL-0225_RLatLon0.09_PT060H.grib2 2026-04-22 14:56 650K
20260422T12Z_MSC_RDPS_RelativeHumidity_IsbL-0250_RLatLon0.09_PT060H.grib2 2026-04-22 14:56 716K
20260422T12Z_MSC_RDPS_RelativeHumidity_IsbL-0275_RLatLon0.09_PT060H.grib2 2026-04-22 14:56 735K
20260422T12Z_MSC_RDPS_RelativeHumidity_IsbL-0300_RLatLon0.09_PT060H.grib2 2026-04-22 14:56 776K
20260422T12Z_MSC_RDPS_RelativeHumidity_IsbL-0350_RLatLon0.09_PT060H.grib2 2026-04-22 14:56 796K
20260422T12Z_MSC_RDPS_RelativeHumidity_IsbL-0400_RLatLon0.09_PT060H.grib2 2026-04-22 14:56 814K
20260422T12Z_MSC_RDPS_RelativeHumidity_IsbL-0450_RLatLon0.09_PT060H.grib2 2026-04-22 14:56 824K
20260422T12Z_MSC_RDPS_RelativeHumidity_IsbL-0500_RLatLon0.09_PT060H.grib2 2026-04-22 14:56 835K
20260422T12Z_MSC_RDPS_RelativeHumidity_IsbL-0550_RLatLon0.09_PT060H.grib2 2026-04-22 14:56 852K
20260422T12Z_MSC_RDPS_RelativeHumidity_IsbL-0600_RLatLon0.09_PT060H.grib2 2026-04-22 14:56 867K
20260422T12Z_MSC_RDPS_RelativeHumidity_IsbL-0650_RLatLon0.09_PT060H.grib2 2026-04-22 14:56 875K
20260422T12Z_MSC_RDPS_RelativeHumidity_IsbL-0700_RLatLon0.09_PT060H.grib2 2026-04-22 14:56 896K
20260422T12Z_MSC_RDPS_RelativeHumidity_IsbL-0750_RLatLon0.09_PT060H.grib2 2026-04-22 14:56 938K
20260422T12Z_MSC_RDPS_RelativeHumidity_IsbL-0800_RLatLon0.09_PT060H.grib2 2026-04-22 14:56 1.0M
20260422T12Z_MSC_RDPS_RelativeHumidity_IsbL-0850_RLatLon0.09_PT060H.grib2 2026-04-22 14:56 1.0M
20260422T12Z_MSC_RDPS_RelativeHumidity_IsbL-0875_RLatLon0.09_PT060H.grib2 2026-04-22 14:56 1.1M
20260422T12Z_MSC_RDPS_RelativeHumidity_IsbL-0900_RLatLon0.09_PT060H.grib2 2026-04-22 14:56 1.1M
20260422T12Z_MSC_RDPS_RelativeHumidity_IsbL-0925_RLatLon0.09_PT060H.grib2 2026-04-22 14:56 1.1M
20260422T12Z_MSC_RDPS_RelativeHumidity_IsbL-0950_RLatLon0.09_PT060H.grib2 2026-04-22 14:56 1.1M
20260422T12Z_MSC_RDPS_RelativeHumidity_IsbL-0970_RLatLon0.09_PT060H.grib2 2026-04-22 14:56 1.0M
20260422T12Z_MSC_RDPS_RelativeHumidity_IsbL-0985_RLatLon0.09_PT060H.grib2 2026-04-22 14:56 1.0M
20260422T12Z_MSC_RDPS_RelativeHumidity_IsbL-1000_RLatLon0.09_PT060H.grib2 2026-04-22 14:56 1.0M
20260422T12Z_MSC_RDPS_RelativeHumidity_IsbL-1015_RLatLon0.09_PT060H.grib2 2026-04-22 14:56 1.0M
20260422T12Z_MSC_RDPS_Runoff-Accum_Sfc_RLatLon0.09_PT060H.grib2 2026-04-22 14:56 65K
20260422T12Z_MSC_RDPS_SWEATIndex_Sfc_RLatLon0.09_PT060H.grib2 2026-04-22 14:56 2.4M
20260422T12Z_MSC_RDPS_SeeingIndex_EAtm_RLatLon0.09_PT060H.grib2 2026-04-22 14:56 1.0M
20260422T12Z_MSC_RDPS_SensibleHeatNetFlux_Sfc_RLatLon0.09_PT060H.grib2 2026-04-22 14:56 311K
20260422T12Z_MSC_RDPS_ShowalterIndex_IsbL-0500_RLatLon0.09_PT060H.grib2 2026-04-22 14:56 2.6M
20260422T12Z_MSC_RDPS_SkyTransparencyIndex_EAtm_RLatLon0.09_PT060H.grib2 2026-04-22 14:56 728K
20260422T12Z_MSC_RDPS_Snow-Accum12h_Sfc_RLatLon0.09_PT060H.grib2 2026-04-22 14:56 627K
20260422T12Z_MSC_RDPS_Snow-Accum1h_Sfc_RLatLon0.09_PT060H.grib2 2026-04-22 14:56 506K
20260422T12Z_MSC_RDPS_Snow-Accum24h_Sfc_RLatLon0.09_PT060H.grib2 2026-04-22 14:56 647K
20260422T12Z_MSC_RDPS_Snow-Accum3h_Sfc_RLatLon0.09_PT060H.grib2 2026-04-22 14:56 458K
20260422T12Z_MSC_RDPS_Snow-Accum6h_Sfc_RLatLon0.09_PT060H.grib2 2026-04-22 14:56 590K
20260422T12Z_MSC_RDPS_Snow-Accum_Sfc_RLatLon0.09_PT060H.grib2 2026-04-22 14:56 828K
20260422T12Z_MSC_RDPS_SnowDensity_Sfc_RLatLon0.09_PT060H.grib2 2026-04-22 14:56 179K
20260422T12Z_MSC_RDPS_SnowDepth_Sfc_RLatLon0.09_PT060H.grib2 2026-04-22 14:56 725K
20260422T12Z_MSC_RDPS_SoilTemp_DBS-0to10cm_RLatLon0.09_PT060H.grib2 2026-04-22 14:56 245K
20260422T12Z_MSC_RDPS_SoilTemp_Sfc_RLatLon0.09_PT060H.grib2 2026-04-22 14:56 279K
20260422T12Z_MSC_RDPS_SoilVolumetricIceContent_Sfc_RLatLon0.09_PT060H.grib2 2026-04-22 14:56 168K
20260422T12Z_MSC_RDPS_SoilVolumetricWaterContent_DBS-0to10cm_RLatLon0.09_PT060H.grib2 2026-04-22 14:56 253K
20260422T12Z_MSC_RDPS_SoilVolumetricWaterContent_DBS-0to1cm_RLatLon0.09_PT060H.grib2 2026-04-22 14:56 342K
20260422T12Z_MSC_RDPS_SpecificHumidity_AGL-120m_RLatLon0.09_PT060H.grib2 2026-04-22 14:56 481K
20260422T12Z_MSC_RDPS_SpecificHumidity_AGL-2m_RLatLon0.09_PT060H.grib2 2026-04-22 14:56 649K
20260422T12Z_MSC_RDPS_SpecificHumidity_AGL-40m_RLatLon0.09_PT060H.grib2 2026-04-22 14:56 486K
20260422T12Z_MSC_RDPS_SpecificHumidity_AGL-80m_RLatLon0.09_PT060H.grib2 2026-04-22 14:56 482K
20260422T12Z_MSC_RDPS_SpecificHumidity_IsbL-0001_RLatLon0.09_PT060H.grib2 2026-04-22 14:56 344K
20260422T12Z_MSC_RDPS_SpecificHumidity_IsbL-0005_RLatLon0.09_PT060H.grib2 2026-04-22 14:56 411K
20260422T12Z_MSC_RDPS_SpecificHumidity_IsbL-0010_RLatLon0.09_PT060H.grib2 2026-04-22 14:56 387K
20260422T12Z_MSC_RDPS_SpecificHumidity_IsbL-0020_RLatLon0.09_PT060H.grib2 2026-04-22 14:56 378K
20260422T12Z_MSC_RDPS_SpecificHumidity_IsbL-0030_RLatLon0.09_PT060H.grib2 2026-04-22 14:56 441K
20260422T12Z_MSC_RDPS_SpecificHumidity_IsbL-0050_RLatLon0.09_PT060H.grib2 2026-04-22 14:56 468K
20260422T12Z_MSC_RDPS_SpecificHumidity_IsbL-0100_RLatLon0.09_PT060H.grib2 2026-04-22 14:56 416K
20260422T12Z_MSC_RDPS_SpecificHumidity_IsbL-0150_RLatLon0.09_PT060H.grib2 2026-04-22 14:56 447K
20260422T12Z_MSC_RDPS_SpecificHumidity_IsbL-0175_RLatLon0.09_PT060H.grib2 2026-04-22 14:56 564K
20260422T12Z_MSC_RDPS_SpecificHumidity_IsbL-0200_RLatLon0.09_PT060H.grib2 2026-04-22 14:56 472K
20260422T12Z_MSC_RDPS_SpecificHumidity_IsbL-0225_RLatLon0.09_PT060H.grib2 2026-04-22 14:56 472K
20260422T12Z_MSC_RDPS_SpecificHumidity_IsbL-0250_RLatLon0.09_PT060H.grib2 2026-04-22 14:56 579K
20260422T12Z_MSC_RDPS_SpecificHumidity_IsbL-0275_RLatLon0.09_PT060H.grib2 2026-04-22 14:56 490K
20260422T12Z_MSC_RDPS_SpecificHumidity_IsbL-0300_RLatLon0.09_PT060H.grib2 2026-04-22 14:56 560K
20260422T12Z_MSC_RDPS_SpecificHumidity_IsbL-0350_RLatLon0.09_PT060H.grib2 2026-04-22 14:56 549K
20260422T12Z_MSC_RDPS_SpecificHumidity_IsbL-0400_RLatLon0.09_PT060H.grib2 2026-04-22 14:56 534K
20260422T12Z_MSC_RDPS_SpecificHumidity_IsbL-0450_RLatLon0.09_PT060H.grib2 2026-04-22 14:56 588K
20260422T12Z_MSC_RDPS_SpecificHumidity_IsbL-0500_RLatLon0.09_PT060H.grib2 2026-04-22 14:56 528K
20260422T12Z_MSC_RDPS_SpecificHumidity_IsbL-0550_RLatLon0.09_PT060H.grib2 2026-04-22 14:56 600K
20260422T12Z_MSC_RDPS_SpecificHumidity_IsbL-0600_RLatLon0.09_PT060H.grib2 2026-04-22 14:56 650K
20260422T12Z_MSC_RDPS_SpecificHumidity_IsbL-0650_RLatLon0.09_PT060H.grib2 2026-04-22 14:56 564K
20260422T12Z_MSC_RDPS_SpecificHumidity_IsbL-0700_RLatLon0.09_PT060H.grib2 2026-04-22 14:56 605K
20260422T12Z_MSC_RDPS_SpecificHumidity_IsbL-0750_RLatLon0.09_PT060H.grib2 2026-04-22 14:56 659K
20260422T12Z_MSC_RDPS_SpecificHumidity_IsbL-0800_RLatLon0.09_PT060H.grib2 2026-04-22 14:56 736K
20260422T12Z_MSC_RDPS_SpecificHumidity_IsbL-0850_RLatLon0.09_PT060H.grib2 2026-04-22 14:56 800K
20260422T12Z_MSC_RDPS_SpecificHumidity_IsbL-0875_RLatLon0.09_PT060H.grib2 2026-04-22 14:56 824K
20260422T12Z_MSC_RDPS_SpecificHumidity_IsbL-0900_RLatLon0.09_PT060H.grib2 2026-04-22 14:56 699K
20260422T12Z_MSC_RDPS_SpecificHumidity_IsbL-0925_RLatLon0.09_PT060H.grib2 2026-04-22 14:56 702K
20260422T12Z_MSC_RDPS_SpecificHumidity_IsbL-0950_RLatLon0.09_PT060H.grib2 2026-04-22 14:56 698K
20260422T12Z_MSC_RDPS_SpecificHumidity_IsbL-0970_RLatLon0.09_PT060H.grib2 2026-04-22 14:56 688K
20260422T12Z_MSC_RDPS_SpecificHumidity_IsbL-0985_RLatLon0.09_PT060H.grib2 2026-04-22 14:56 679K
20260422T12Z_MSC_RDPS_SpecificHumidity_IsbL-1000_RLatLon0.09_PT060H.grib2 2026-04-22 14:56 671K
20260422T12Z_MSC_RDPS_SpecificHumidity_IsbL-1015_RLatLon0.09_PT060H.grib2 2026-04-22 14:56 659K
20260422T12Z_MSC_RDPS_SpecificHumidity_Sfc_RLatLon0.09_PT060H.grib2 2026-04-22 14:56 332K
20260422T12Z_MSC_RDPS_StormRelativeHelicity_EtaL-10000_RLatLon0.09_PT060H.grib2 2026-04-22 14:56 1.1M
20260422T12Z_MSC_RDPS_StormSeverityIndex_EtaL-10000_RLatLon0.09_PT060H.grib2 2026-04-22 14:56 1.1M
20260422T12Z_MSC_RDPS_Thickness_IsbL-0850to0700_RLatLon0.09_PT060H.grib2 2026-04-22 14:56 176K
20260422T12Z_MSC_RDPS_Thickness_IsbL-1000to0500_RLatLon0.09_PT060H.grib2 2026-04-22 14:56 199K
20260422T12Z_MSC_RDPS_Thickness_IsbL-1000to0850_RLatLon0.09_PT060H.grib2 2026-04-22 14:56 185K
20260422T12Z_MSC_RDPS_TotalCloudCover_Sfc_RLatLon0.09_PT060H.grib2 2026-04-22 14:56 653K
20260422T12Z_MSC_RDPS_TotalTotalsIndex_Sfc_RLatLon0.09_PT060H.grib2 2026-04-22 14:56 2.4M
20260422T12Z_MSC_RDPS_UVIndex-ClearSky_Sfc_RLatLon0.09_PT060H.grib2 2026-04-22 14:56 182K
20260422T12Z_MSC_RDPS_UVIndex_Sfc_RLatLon0.09_PT060H.grib2 2026-04-22 14:56 379K
20260422T12Z_MSC_RDPS_UpwardLongwaveRadiationFlux_NTAtm_RLatLon0.09_PT060H.grib2 2026-04-22 14:56 499K
20260422T12Z_MSC_RDPS_UpwardShortwaveRadiationFlux_NTAtm_RLatLon0.09_PT060H.grib2 2026-04-22 14:56 329K
20260422T12Z_MSC_RDPS_VerticalVelocity_IsbL-0250_RLatLon0.09_PT060H.grib2 2026-04-22 14:56 466K
20260422T12Z_MSC_RDPS_VerticalVelocity_IsbL-0500_RLatLon0.09_PT060H.grib2 2026-04-22 14:56 553K
20260422T12Z_MSC_RDPS_VerticalVelocity_IsbL-0700_RLatLon0.09_PT060H.grib2 2026-04-22 14:56 626K
20260422T12Z_MSC_RDPS_VerticalVelocity_IsbL-0850_RLatLon0.09_PT060H.grib2 2026-04-22 14:56 699K
20260422T12Z_MSC_RDPS_VerticalWindShear_EtaL-6500_RLatLon0.09_PT060H.grib2 2026-04-22 14:56 1.2M
20260422T12Z_MSC_RDPS_WindChill_Sfc_RLatLon0.09_PT060H.grib2 2026-04-22 14:56 1.1M
20260422T12Z_MSC_RDPS_WindDir_AGL-10m_RLatLon0.09_PT060H.grib2 2026-04-22 14:56 968K
20260422T12Z_MSC_RDPS_WindDir_AGL-120m_RLatLon0.09_PT060H.grib2 2026-04-22 14:56 611K
20260422T12Z_MSC_RDPS_WindDir_AGL-40m_RLatLon0.09_PT060H.grib2 2026-04-22 14:56 635K
20260422T12Z_MSC_RDPS_WindDir_AGL-80m_RLatLon0.09_PT060H.grib2 2026-04-22 14:56 621K
20260422T12Z_MSC_RDPS_WindDir_IsbL-0001_RLatLon0.09_PT060H.grib2 2026-04-22 14:56 270K
20260422T12Z_MSC_RDPS_WindDir_IsbL-0005_RLatLon0.09_PT060H.grib2 2026-04-22 14:56 372K
20260422T12Z_MSC_RDPS_WindDir_IsbL-0010_RLatLon0.09_PT060H.grib2 2026-04-22 14:56 402K
20260422T12Z_MSC_RDPS_WindDir_IsbL-0020_RLatLon0.09_PT060H.grib2 2026-04-22 14:56 421K
20260422T12Z_MSC_RDPS_WindDir_IsbL-0030_RLatLon0.09_PT060H.grib2 2026-04-22 14:56 406K
20260422T12Z_MSC_RDPS_WindDir_IsbL-0050_RLatLon0.09_PT060H.grib2 2026-04-22 14:56 438K
20260422T12Z_MSC_RDPS_WindDir_IsbL-0100_RLatLon0.09_PT060H.grib2 2026-04-22 14:56 434K
20260422T12Z_MSC_RDPS_WindDir_IsbL-0150_RLatLon0.09_PT060H.grib2 2026-04-22 14:56 426K
20260422T12Z_MSC_RDPS_WindDir_IsbL-0175_RLatLon0.09_PT060H.grib2 2026-04-22 14:56 449K
20260422T12Z_MSC_RDPS_WindDir_IsbL-0200_RLatLon0.09_PT060H.grib2 2026-04-22 14:56 452K
20260422T12Z_MSC_RDPS_WindDir_IsbL-0225_RLatLon0.09_PT060H.grib2 2026-04-22 14:56 443K
20260422T12Z_MSC_RDPS_WindDir_IsbL-0250_RLatLon0.09_PT060H.grib2 2026-04-22 14:56 438K
20260422T12Z_MSC_RDPS_WindDir_IsbL-0275_RLatLon0.09_PT060H.grib2 2026-04-22 14:56 459K
20260422T12Z_MSC_RDPS_WindDir_IsbL-0300_RLatLon0.09_PT060H.grib2 2026-04-22 14:56 461K
20260422T12Z_MSC_RDPS_WindDir_IsbL-0350_RLatLon0.09_PT060H.grib2 2026-04-22 14:56 483K
20260422T12Z_MSC_RDPS_WindDir_IsbL-0400_RLatLon0.09_PT060H.grib2 2026-04-22 14:56 506K
20260422T12Z_MSC_RDPS_WindDir_IsbL-0450_RLatLon0.09_PT060H.grib2 2026-04-22 14:56 523K
20260422T12Z_MSC_RDPS_WindDir_IsbL-0500_RLatLon0.09_PT060H.grib2 2026-04-22 14:56 538K
20260422T12Z_MSC_RDPS_WindDir_IsbL-0550_RLatLon0.09_PT060H.grib2 2026-04-22 14:56 560K
20260422T12Z_MSC_RDPS_WindDir_IsbL-0600_RLatLon0.09_PT060H.grib2 2026-04-22 14:56 595K
20260422T12Z_MSC_RDPS_WindDir_IsbL-0650_RLatLon0.09_PT060H.grib2 2026-04-22 14:56 633K
20260422T12Z_MSC_RDPS_WindDir_IsbL-0700_RLatLon0.09_PT060H.grib2 2026-04-22 14:56 679K
20260422T12Z_MSC_RDPS_WindDir_IsbL-0750_RLatLon0.09_PT060H.grib2 2026-04-22 14:56 735K
20260422T12Z_MSC_RDPS_WindDir_IsbL-0800_RLatLon0.09_PT060H.grib2 2026-04-22 14:56 803K
20260422T12Z_MSC_RDPS_WindDir_IsbL-0850_RLatLon0.09_PT060H.grib2 2026-04-22 14:56 869K
20260422T12Z_MSC_RDPS_WindDir_IsbL-0875_RLatLon0.09_PT060H.grib2 2026-04-22 14:56 895K
20260422T12Z_MSC_RDPS_WindDir_IsbL-0900_RLatLon0.09_PT060H.grib2 2026-04-22 14:56 908K
20260422T12Z_MSC_RDPS_WindDir_IsbL-0925_RLatLon0.09_PT060H.grib2 2026-04-22 14:56 916K
20260422T12Z_MSC_RDPS_WindDir_IsbL-0950_RLatLon0.09_PT060H.grib2 2026-04-22 14:56 913K
20260422T12Z_MSC_RDPS_WindDir_IsbL-0970_RLatLon0.09_PT060H.grib2 2026-04-22 14:56 919K
20260422T12Z_MSC_RDPS_WindDir_IsbL-0985_RLatLon0.09_PT060H.grib2 2026-04-22 14:56 932K
20260422T12Z_MSC_RDPS_WindDir_IsbL-1000_RLatLon0.09_PT060H.grib2 2026-04-22 14:56 945K
20260422T12Z_MSC_RDPS_WindDir_IsbL-1015_RLatLon0.09_PT060H.grib2 2026-04-22 14:56 958K
20260422T12Z_MSC_RDPS_WindGust-Max_AGL-10m_RLatLon0.09_PT060H.grib2 2026-04-22 14:56 1.0M
20260422T12Z_MSC_RDPS_WindGust-Min_AGL-10m_RLatLon0.09_PT060H.grib2 2026-04-22 14:56 967K
20260422T12Z_MSC_RDPS_WindGust_AGL-10m_RLatLon0.09_PT060H.grib2 2026-04-22 14:56 1.0M
20260422T12Z_MSC_RDPS_WindSpeed_AGL-10m_RLatLon0.09_PT060H.grib2 2026-04-22 14:56 842K
20260422T12Z_MSC_RDPS_WindSpeed_AGL-120m_RLatLon0.09_PT060H.grib2 2026-04-22 14:56 534K
20260422T12Z_MSC_RDPS_WindSpeed_AGL-40m_RLatLon0.09_PT060H.grib2 2026-04-22 14:56 541K
20260422T12Z_MSC_RDPS_WindSpeed_AGL-80m_RLatLon0.09_PT060H.grib2 2026-04-22 14:56 536K
20260422T12Z_MSC_RDPS_WindSpeed_IsbL-0001_RLatLon0.09_PT060H.grib2 2026-04-22 14:56 252K
20260422T12Z_MSC_RDPS_WindSpeed_IsbL-0005_RLatLon0.09_PT060H.grib2 2026-04-22 14:56 300K
20260422T12Z_MSC_RDPS_WindSpeed_IsbL-0010_RLatLon0.09_PT060H.grib2 2026-04-22 14:56 316K
20260422T12Z_MSC_RDPS_WindSpeed_IsbL-0020_RLatLon0.09_PT060H.grib2 2026-04-22 14:56 432K
20260422T12Z_MSC_RDPS_WindSpeed_IsbL-0030_RLatLon0.09_PT060H.grib2 2026-04-22 14:56 334K
20260422T12Z_MSC_RDPS_WindSpeed_IsbL-0050_RLatLon0.09_PT060H.grib2 2026-04-22 14:56 477K
20260422T12Z_MSC_RDPS_WindSpeed_IsbL-0100_RLatLon0.09_PT060H.grib2 2026-04-22 14:56 487K
20260422T12Z_MSC_RDPS_WindSpeed_IsbL-0150_RLatLon0.09_PT060H.grib2 2026-04-22 14:56 390K
20260422T12Z_MSC_RDPS_WindSpeed_IsbL-0175_RLatLon0.09_PT060H.grib2 2026-04-22 14:56 443K
20260422T12Z_MSC_RDPS_WindSpeed_IsbL-0200_RLatLon0.09_PT060H.grib2 2026-04-22 14:56 460K
20260422T12Z_MSC_RDPS_WindSpeed_IsbL-0225_RLatLon0.09_PT060H.grib2 2026-04-22 14:56 463K
20260422T12Z_MSC_RDPS_WindSpeed_IsbL-0250_RLatLon0.09_PT060H.grib2 2026-04-22 14:56 462K
20260422T12Z_MSC_RDPS_WindSpeed_IsbL-0275_RLatLon0.09_PT060H.grib2 2026-04-22 14:56 477K
20260422T12Z_MSC_RDPS_WindSpeed_IsbL-0300_RLatLon0.09_PT060H.grib2 2026-04-22 14:56 473K
20260422T12Z_MSC_RDPS_WindSpeed_IsbL-0350_RLatLon0.09_PT060H.grib2 2026-04-22 14:56 481K
20260422T12Z_MSC_RDPS_WindSpeed_IsbL-0400_RLatLon0.09_PT060H.grib2 2026-04-22 14:56 467K
20260422T12Z_MSC_RDPS_WindSpeed_IsbL-0450_RLatLon0.09_PT060H.grib2 2026-04-22 14:56 484K
20260422T12Z_MSC_RDPS_WindSpeed_IsbL-0500_RLatLon0.09_PT060H.grib2 2026-04-22 14:56 469K
20260422T12Z_MSC_RDPS_WindSpeed_IsbL-0550_RLatLon0.09_PT060H.grib2 2026-04-22 14:56 589K
20260422T12Z_MSC_RDPS_WindSpeed_IsbL-0600_RLatLon0.09_PT060H.grib2 2026-04-22 14:56 599K
20260422T12Z_MSC_RDPS_WindSpeed_IsbL-0650_RLatLon0.09_PT060H.grib2 2026-04-22 14:56 617K
20260422T12Z_MSC_RDPS_WindSpeed_IsbL-0700_RLatLon0.09_PT060H.grib2 2026-04-22 14:56 683K
20260422T12Z_MSC_RDPS_WindSpeed_IsbL-0750_RLatLon0.09_PT060H.grib2 2026-04-22 14:56 671K
20260422T12Z_MSC_RDPS_WindSpeed_IsbL-0800_RLatLon0.09_PT060H.grib2 2026-04-22 14:56 720K
20260422T12Z_MSC_RDPS_WindSpeed_IsbL-0850_RLatLon0.09_PT060H.grib2 2026-04-22 14:56 772K
20260422T12Z_MSC_RDPS_WindSpeed_IsbL-0875_RLatLon0.09_PT060H.grib2 2026-04-22 14:56 787K
20260422T12Z_MSC_RDPS_WindSpeed_IsbL-0900_RLatLon0.09_PT060H.grib2 2026-04-22 14:56 848K
20260422T12Z_MSC_RDPS_WindSpeed_IsbL-0925_RLatLon0.09_PT060H.grib2 2026-04-22 14:56 859K
20260422T12Z_MSC_RDPS_WindSpeed_IsbL-0950_RLatLon0.09_PT060H.grib2 2026-04-22 14:56 858K
20260422T12Z_MSC_RDPS_WindSpeed_IsbL-0970_RLatLon0.09_PT060H.grib2 2026-04-22 14:56 856K
20260422T12Z_MSC_RDPS_WindSpeed_IsbL-0985_RLatLon0.09_PT060H.grib2 2026-04-22 14:56 855K
20260422T12Z_MSC_RDPS_WindSpeed_IsbL-1000_RLatLon0.09_PT060H.grib2 2026-04-22 14:56 850K
20260422T12Z_MSC_RDPS_WindSpeed_IsbL-1015_RLatLon0.09_PT060H.grib2 2026-04-22 14:56 843K
20260422T12Z_MSC_RDPS_WindU_AGL-10m_RLatLon0.09_PT060H.grib2 2026-04-22 14:56 433K
20260422T12Z_MSC_RDPS_WindU_AGL-120m_RLatLon0.09_PT060H.grib2 2026-04-22 14:56 417K
20260422T12Z_MSC_RDPS_WindU_AGL-40m_RLatLon0.09_PT060H.grib2 2026-04-22 14:56 537K
20260422T12Z_MSC_RDPS_WindU_AGL-80m_RLatLon0.09_PT060H.grib2 2026-04-22 14:56 418K
20260422T12Z_MSC_RDPS_WindU_IsbL-0001_RLatLon0.09_PT060H.grib2 2026-04-22 14:56 245K
20260422T12Z_MSC_RDPS_WindU_IsbL-0005_RLatLon0.09_PT060H.grib2 2026-04-22 14:56 292K
20260422T12Z_MSC_RDPS_WindU_IsbL-0010_RLatLon0.09_PT060H.grib2 2026-04-22 14:56 346K
20260422T12Z_MSC_RDPS_WindU_IsbL-0020_RLatLon0.09_PT060H.grib2 2026-04-22 14:56 325K
20260422T12Z_MSC_RDPS_WindU_IsbL-0030_RLatLon0.09_PT060H.grib2 2026-04-22 14:56 364K
20260422T12Z_MSC_RDPS_WindU_IsbL-0050_RLatLon0.09_PT060H.grib2 2026-04-22 14:56 361K
20260422T12Z_MSC_RDPS_WindU_IsbL-0100_RLatLon0.09_PT060H.grib2 2026-04-22 14:56 480K
20260422T12Z_MSC_RDPS_WindU_IsbL-0150_RLatLon0.09_PT060H.grib2 2026-04-22 14:56 383K
20260422T12Z_MSC_RDPS_WindU_IsbL-0175_RLatLon0.09_PT060H.grib2 2026-04-22 14:56 438K
20260422T12Z_MSC_RDPS_WindU_IsbL-0200_RLatLon0.09_PT060H.grib2 2026-04-22 14:56 454K
20260422T12Z_MSC_RDPS_WindU_IsbL-0225_RLatLon0.09_PT060H.grib2 2026-04-22 14:56 455K
20260422T12Z_MSC_RDPS_WindU_IsbL-0250_RLatLon0.09_PT060H.grib2 2026-04-22 14:56 452K
20260422T12Z_MSC_RDPS_WindU_IsbL-0275_RLatLon0.09_PT060H.grib2 2026-04-22 14:56 364K
20260422T12Z_MSC_RDPS_WindU_IsbL-0300_RLatLon0.09_PT060H.grib2 2026-04-22 14:56 359K
20260422T12Z_MSC_RDPS_WindU_IsbL-0350_RLatLon0.09_PT060H.grib2 2026-04-22 14:56 365K
20260422T12Z_MSC_RDPS_WindU_IsbL-0400_RLatLon0.09_PT060H.grib2 2026-04-22 14:56 368K
20260422T12Z_MSC_RDPS_WindU_IsbL-0450_RLatLon0.09_PT060H.grib2 2026-04-22 14:56 472K
20260422T12Z_MSC_RDPS_WindU_IsbL-0500_RLatLon0.09_PT060H.grib2 2026-04-22 14:56 474K
20260422T12Z_MSC_RDPS_WindU_IsbL-0550_RLatLon0.09_PT060H.grib2 2026-04-22 14:56 477K
20260422T12Z_MSC_RDPS_WindU_IsbL-0600_RLatLon0.09_PT060H.grib2 2026-04-22 14:56 488K
20260422T12Z_MSC_RDPS_WindU_IsbL-0650_RLatLon0.09_PT060H.grib2 2026-04-22 14:56 503K
20260422T12Z_MSC_RDPS_WindU_IsbL-0700_RLatLon0.09_PT060H.grib2 2026-04-22 14:56 508K
20260422T12Z_MSC_RDPS_WindU_IsbL-0750_RLatLon0.09_PT060H.grib2 2026-04-22 14:56 549K
20260422T12Z_MSC_RDPS_WindU_IsbL-0800_RLatLon0.09_PT060H.grib2 2026-04-22 14:56 590K
20260422T12Z_MSC_RDPS_WindU_IsbL-0850_RLatLon0.09_PT060H.grib2 2026-04-22 14:56 632K
20260422T12Z_MSC_RDPS_WindU_IsbL-0875_RLatLon0.09_PT060H.grib2 2026-04-22 14:56 646K
20260422T12Z_MSC_RDPS_WindU_IsbL-0900_RLatLon0.09_PT060H.grib2 2026-04-22 14:56 656K
20260422T12Z_MSC_RDPS_WindU_IsbL-0925_RLatLon0.09_PT060H.grib2 2026-04-22 14:56 664K
20260422T12Z_MSC_RDPS_WindU_IsbL-0950_RLatLon0.09_PT060H.grib2 2026-04-22 14:56 660K
20260422T12Z_MSC_RDPS_WindU_IsbL-0970_RLatLon0.09_PT060H.grib2 2026-04-22 14:56 655K
20260422T12Z_MSC_RDPS_WindU_IsbL-0985_RLatLon0.09_PT060H.grib2 2026-04-22 14:56 653K
20260422T12Z_MSC_RDPS_WindU_IsbL-1000_RLatLon0.09_PT060H.grib2 2026-04-22 14:56 787K
20260422T12Z_MSC_RDPS_WindU_IsbL-1015_RLatLon0.09_PT060H.grib2 2026-04-22 14:56 781K
20260422T12Z_MSC_RDPS_WindV_AGL-10m_RLatLon0.09_PT060H.grib2 2026-04-22 14:56 431K
20260422T12Z_MSC_RDPS_WindV_AGL-120m_RLatLon0.09_PT060H.grib2 2026-04-22 14:56 530K
20260422T12Z_MSC_RDPS_WindV_AGL-40m_RLatLon0.09_PT060H.grib2 2026-04-22 14:56 534K
20260422T12Z_MSC_RDPS_WindV_AGL-80m_RLatLon0.09_PT060H.grib2 2026-04-22 14:56 532K
20260422T12Z_MSC_RDPS_WindV_IsbL-0001_RLatLon0.09_PT060H.grib2 2026-04-22 14:56 245K
20260422T12Z_MSC_RDPS_WindV_IsbL-0005_RLatLon0.09_PT060H.grib2 2026-04-22 14:56 334K
20260422T12Z_MSC_RDPS_WindV_IsbL-0010_RLatLon0.09_PT060H.grib2 2026-04-22 14:56 307K
20260422T12Z_MSC_RDPS_WindV_IsbL-0020_RLatLon0.09_PT060H.grib2 2026-04-22 14:56 326K
20260422T12Z_MSC_RDPS_WindV_IsbL-0030_RLatLon0.09_PT060H.grib2 2026-04-22 14:56 327K
20260422T12Z_MSC_RDPS_WindV_IsbL-0050_RLatLon0.09_PT060H.grib2 2026-04-22 14:56 362K
20260422T12Z_MSC_RDPS_WindV_IsbL-0100_RLatLon0.09_PT060H.grib2 2026-04-22 14:56 341K
20260422T12Z_MSC_RDPS_WindV_IsbL-0150_RLatLon0.09_PT060H.grib2 2026-04-22 14:56 402K
20260422T12Z_MSC_RDPS_WindV_IsbL-0175_RLatLon0.09_PT060H.grib2 2026-04-22 14:56 336K
20260422T12Z_MSC_RDPS_WindV_IsbL-0200_RLatLon0.09_PT060H.grib2 2026-04-22 14:56 350K
20260422T12Z_MSC_RDPS_WindV_IsbL-0225_RLatLon0.09_PT060H.grib2 2026-04-22 14:56 349K
20260422T12Z_MSC_RDPS_WindV_IsbL-0250_RLatLon0.09_PT060H.grib2 2026-04-22 14:56 347K
20260422T12Z_MSC_RDPS_WindV_IsbL-0275_RLatLon0.09_PT060H.grib2 2026-04-22 14:56 384K
20260422T12Z_MSC_RDPS_WindV_IsbL-0300_RLatLon0.09_PT060H.grib2 2026-04-22 14:56 380K
20260422T12Z_MSC_RDPS_WindV_IsbL-0350_RLatLon0.09_PT060H.grib2 2026-04-22 14:56 362K
20260422T12Z_MSC_RDPS_WindV_IsbL-0400_RLatLon0.09_PT060H.grib2 2026-04-22 14:56 364K
20260422T12Z_MSC_RDPS_WindV_IsbL-0450_RLatLon0.09_PT060H.grib2 2026-04-22 14:56 469K
20260422T12Z_MSC_RDPS_WindV_IsbL-0500_RLatLon0.09_PT060H.grib2 2026-04-22 14:56 470K
20260422T12Z_MSC_RDPS_WindV_IsbL-0550_RLatLon0.09_PT060H.grib2 2026-04-22 14:56 471K
20260422T12Z_MSC_RDPS_WindV_IsbL-0600_RLatLon0.09_PT060H.grib2 2026-04-22 14:56 481K
20260422T12Z_MSC_RDPS_WindV_IsbL-0650_RLatLon0.09_PT060H.grib2 2026-04-22 14:56 480K
20260422T12Z_MSC_RDPS_WindV_IsbL-0700_RLatLon0.09_PT060H.grib2 2026-04-22 14:56 500K
20260422T12Z_MSC_RDPS_WindV_IsbL-0750_RLatLon0.09_PT060H.grib2 2026-04-22 14:56 542K
20260422T12Z_MSC_RDPS_WindV_IsbL-0800_RLatLon0.09_PT060H.grib2 2026-04-22 14:56 571K
20260422T12Z_MSC_RDPS_WindV_IsbL-0850_RLatLon0.09_PT060H.grib2 2026-04-22 14:56 617K
20260422T12Z_MSC_RDPS_WindV_IsbL-0875_RLatLon0.09_PT060H.grib2 2026-04-22 14:56 633K
20260422T12Z_MSC_RDPS_WindV_IsbL-0900_RLatLon0.09_PT060H.grib2 2026-04-22 14:56 644K
20260422T12Z_MSC_RDPS_WindV_IsbL-0925_RLatLon0.09_PT060H.grib2 2026-04-22 14:56 654K
20260422T12Z_MSC_RDPS_WindV_IsbL-0950_RLatLon0.09_PT060H.grib2 2026-04-22 14:56 650K
20260422T12Z_MSC_RDPS_WindV_IsbL-0970_RLatLon0.09_PT060H.grib2 2026-04-22 14:56 649K
20260422T12Z_MSC_RDPS_WindV_IsbL-0985_RLatLon0.09_PT060H.grib2 2026-04-22 14:56 788K
20260422T12Z_MSC_RDPS_WindV_IsbL-1000_RLatLon0.09_PT060H.grib2 2026-04-22 14:56 783K
20260422T12Z_MSC_RDPS_WindV_IsbL-1015_RLatLon0.09_PT060H.grib2 2026-04-22 14:56 824K